www.pogodaiklimat.ru

Погода и климат >> Архив погоды >> Украина >> Жмеринка


ПОГОДА в Жмеринке

  • Прогноз погоды в Жмеринке
  • Монитор погоды в Жмеринке
  • Климат города

АРХИВ ПОГОДЫ в Жмеринке

Время (UTC), дата Ветер
(напр.,м/с)
 
Видим.   Явления Облачность Т
(С)
Тd
(С)
f
(%)
Тe
(С)
Тes
(С)
Комфортность P
(гПа)
Po
(гПа)
Тmin
(С)
Tmax
(С)
R
(мм)
R24
(мм)
S
(см)
00 17.06 С 1 10 км 10/0
[Ac und]
+17.2 +14.8 86 +18 +18 1013.2 1013.0
03 17.06 штиль 0 4000 м слабый ливневой дождь 10 баллов +16.2 +14.4 89 0.0
06 17.06 штиль 0 10 км дымка {ливн. осадки} 10/10 270 м
[Cb cap]
+16.6 +15.2 91 +16 +16 1012.0 1012.0 +16.0 1
09 17.06 В 4 10 км 9/5 600 м
[Cb cap Ac trans Ci fib]
+21.8 +17.7 78 +26 +30 душно 1012.0 1012.0
12 17.06 В 4 20 км 8/4 600 м
[Cb cap Ac trans]
+25.1 +18.4 66 +30 +33 душно 1010.7 1011.0
15 17.06 В 4 10 км гроза, ливневой дождь 9 баллов +21.0 +16.8 77 0.0
18 17.06 штиль 0 10 км в посл. час гроза {ливн. осадки} 10/8 600 м
[Cb cap Ac und]
+17.8 +16.5 92 +18 +18 1013.7 1014.0 +25.3 2
21 17.06 штиль 0 10 км дымка 2 балла +16.6 +15.6 94 676.1
00 18.06 штиль 0 10 км дымка ясно +15.3 +14.6 96 +15 +15 1013.7 1014.0
03 18.06 штиль 0 4000 м дымка 7 баллов +15.2 +13.9 92 0.0
06 18.06 В 1 10 км {ливн. осадки} 8/6 600 м
[Sc Ac trans]
+20.2 +17.4 84 +24 +27 комфорт 1013.4 1013.0 +15.0 0.8
09 18.06 З 1 10 км 8/1 600 м
[Cu med, cong Ci fib]
+24.7 +18.4 68 +29 +44 душно 1013.5 1014.0
12 18.06 В 3 10 км 8/8 600 м
[Cu med, cong Ci fib]
+14.9 +15 +17 1012.9 1013.0
15 18.06 В 2 20 км 8/5 600 м
[Cu med, cong Ci fib]
+26.6 +15.5 51 +30 +32 душно 1012.8 1013.0
18 18.06 СЗ 2 10 км 8/1 600 м
[Cu med, cong Ci fib]
+21.0 +15.9 73 +25 +25 комфорт 1014.6 1015.0 +27.5
21 18.06 В 1 10 км ясно +19.3 +15.9 81 +22 +22 комфорт 1016.3 1016.0
00 19.06 С 1 10 км ясно +17.5 +15.0 85 +19 +19 1016.8 1017.0
03 19.06 штиль 0 4000 м дымка ясно +16.6 +15.1 91 +16 +17 1017.3 1017.0
06 19.06 штиль 0 10 км ясно +22.8 +16.2 66 +27 +37 душно 1017.1 1017.0 +16.3
09 19.06 штиль 0 20 км 4/3 600 м
[Cu hum Ac trans]
+25.7 +14.7 51 +28 +43 жарко -338.9 1017.0
12 19.06 СЗ 1 20 км 8/8 600 м
[Cu med, cong]
+26.6 +17.2 56 +31 +34 душно 1016.5 1017.0
15 19.06 В 2 20 км 8/8 600 м
[Cu med, cong]
+27.7 +17.7 54 +32 +33 очень
душно
1015.7 1016.0
18 19.06 штиль 0 20 км {гроза} 1/1 600 м
[Cu med, cong]
+25.4 +17.7 62 +30 +30 душно 1016.6 1017.0 +27.9
21 19.06 СЗ 1 10 км ясно +21.4 +17.5 78 +25 +25 комфорт 1017.8 1018.0
00 20.06 СЗ 2 10 км ясно +19.6 +16.6 83 +22 +22 комфорт 1018.7 1019.0
03 20.06 СЗ 2 10 км 1/0
[Ci fib]
+18.8 +16.1 84 +20 +21 1019.2 1019.0
06 20.06 СВ 3 10 км 8/5 600 м
[Sc Ac trans Ci fib]
+21.8 +15.9 69 +25 +28 комфорт 1019.8 1020.0 +16.6
09 20.06 СЗ 2 10 км 3/0
[Ac trans Ci fib]
+24.8 +14.4 52 +27 +41 жарко -339.9 1020.0
12 20.06 СЗ 4 20 км 8/8 600 м
[Cu med, cong]
+26.2 +13.0 44 +28 +30 жарко 1019.3 1019.0
15 20.06 СЗ 3 20 км 8/8 600 м
[Cb cap]
+25.2 +13.4 48 +27 +28 жарко 1018.6 1019.0
18 20.06 СЗ 1 20 км 4/0
[Ci fib]
+23.0 +15.0 61 +27 +27 душно 1018.3 1018.0 +27.0
21 20.06 СЗ 1 10 км ясно +19.3 +15.1 77 +22 +22 комфорт 1019.4 1019.0
00 21.06 штиль 0 10 км ясно +17.4 +14.6 84 +17 +17 1019.5 1020.0
03 21.06 штиль 0 10 км 3/0
[Ci fib]
+17.0 +14.6 86 +17 +17 1019.1 1019.0
06 21.06 штиль 0 20 км 3/0
[Ci fib]
+23.1 +15.2 61 +27 +37 душно 1018.1 1018.0 +16.7
09 21.06 штиль 0 20 км 6/3 600 м
[Cu hum Ci fib]
+25.3 +15.1 53 +28 +43 жарко -338.6 1016.0
12 21.06 З 3 20 км 8/6 600 м
[Cu med, cong Ci fib]
+26.3 +16.0 53 +30 +34 душно 1014.4 1014.0
15 21.06 З 3 20 км 4/3 600 м
[Cu med, cong Ci fib]
+27.1 +15.7 50 +30 +33 душно 1012.1 1012.0
18 21.06 ЮЗ 1 20 км 3/0
[Ci fib]
+24.5 +16.9 63 +28 +28 душно 1011.9 1012.0 +27.2
21 21.06 ЮВ 1 10 км ясно +21.8 +16.5 72 +26 +26 душно 1011.2 1011.0
00 22.06 Ю 1 10 км ясно +20.0 +15.9 77 +24 +24 комфорт 1009.9 1010.0
03 22.06 штиль 0 10 км 4/0
[Ac trans Ci fib]
+18.6 +15.8 84 +19 +20 1009.3 1009.0
06 22.06 ЮЗ 1 10 км 6/0
[Ac trans Ci fib]
+22.2 +17.7 76 +27 +34 душно 1008.7 1009.0 +18.4
09 22.06 СЗ 4 10 км 9/8 600 м
[Cu med, cong Ci fib]
+21.7 +16.8 74 +26 +28 душно 1008.9 1009.0
12 22.06 З 5 20 км 10/8 600 м
[Cu med, cong Ci fib]
+19.6 +13.3 67 +21 +22 комфорт 1010.6 1011.0
15 22.06 СЗ 5 20 км 9 баллов +18.0 +12.0 68 0.0
18 22.06 С 4 20 км 9/8 600 м
[Sc Ac trans]
+16.1 +10.9 71 +15 +15 1012.0 1012.0 +22.3
21 22.06 СЗ 2 10 км 9 баллов +14.8 +9.2 69 1349.5
00 23.06 СВ 3 4000 м слабый ливневой дождь 10/10 660 м
[Cb cap]
+13.4 +11.8 90 +12 +12 1011.2 1011.0 0.3
03 23.06 С 2 20 км 10 баллов +12.7 +10.8 88 0.0
06 23.06 СЗ 2 4000 м слабый ливневой дождь 10/10 270 м
[Cb cap]
+11.6 +11.0 96 +10 +10 1011.5 1012.0 +11.5 2
09 23.06 С 5 10 км в посл. час ливневой дождь 10 баллов +10.6 +9.8 95 674.7
12 23.06 С 4 4000 м слабый ливневой дождь 10/10 330 м
[Cb cap]
+10.2 +9.8 97 +7 +7 1012.7 1013.0 6.0
15 23.06 СЗ 3 4000 м слабый ливневой дождь 10 баллов +10.7 +10.2 97 0.0
18 23.06 СЗ 3 10 км 4 балла +11.4 +7.3 76 0.0 +11.6 7
21 23.06 З 2 10 км ясно +8.7 +5.8 82 +7 +7 1014.9 1015.0

 

Местоположение метеостанции Жмеринка (Винницкая область, Украина): широта 49.05 долгота 28.10 высота над уровнем моря 304 м.

В архиве по умолчанию представлена погода в Жмеринке за последнюю неделю. Архивные данные за месяц целиком и за предыдущие месяцы, начиная с января 2011 года, Вы можете получить, выбрав интересующий диапазон дат из раскрывающегося списка и нажав кнопку "Ввод!".


*Определитесь, кто Вы:
робот инопланетянин человек

Внимание! Время в таблицах - всемирное. Для получения местного времени необходимо прибавить поправку, которая в Жмеринке равна 2 ч.

Смотрите также архив погоды в соседних городах и на ближайших метеорологических станциях:

Погода в Виннице (Винницкая область, Украина) (42 км)
Погода в Хмельнике (Винницкая область, Украина) (51 км)
Погода в Новой Ушице (Хмельницкая область, Украина) (65 км)
Погода в Могилев-Подольском (Винницкая область, Украина) (71 км)
Погода в Новоднестровске (Черновицкая область, Украина) (72 км)
Погода в Хмельницком (Хмельницкая область, Украина) (92 км)
Погода в Сороках (Молдова) (96 км)
Погода в Гайсине (Винницкая область, Украина) (99 км)
Погода в Белополе (Винницкая область, Украина) (103 км)
Погода в Бричанах (Молдова) (108 км)

Пояснения к столбцам:

Ветер - указаны скорость ветра в м/с - средняя за 10 мин, порывы в срок и между сроками (в фигурных скобках) и направление, откуда дует ветер: С - северный, СВ - северо-восточный, В - восточный, ЮВ - юго-восточный, Ю - южный, ЮЗ - юго-западный, З - западный, СЗ - северо-западный.
Видимость - горизонтальная дальность видимости в метрах или километрах. При видимости от 1 до 10 км при отсутствии осадков обычно наблюдается дымка, при ухудшении видимости до 1 км и менее - туман. В сухую погоду видимость может ухудшаться дымом, пылью или мглою.
Явления - указаны атмосферные явления, наблюдавшиеся в срок или в последний час перед сроком; фигурными скобками обозначены явления, наблюдавшиеся между сроками (за 1-3 часа до срока); квадратными скобками обозначены град или гололедные отложения с указанием их диаметра в мм.
Облачность - указаны через наклонную черту общая и нижняя облачность в баллах и высота нижней границы облаков в метрах; квадратными скобками обозначены формы облаков: Ci - перистые, Cs - перисто-слоистые, Cc - перисто-кучевые, Ac - высококучевые, As - высокослоистые, Sc - слоисто-кучевые, Ns - слоисто-дождевые, Cu - кучевые, Cb - кучево-дождевые. Подробнее классификацию облаков см. в Атласе облаков (PDF).
T - Температура воздуха - температура, измеренная на высоте 2 м над землей.
Td - Температура точки росы - температура, при понижении до которой содержащийся в воздухе водяной пар достигнет насыщения.
f - Относительная влажность воздуха - влажноcть воздуха, измеренная на высоте 2 м над землей.
Te - Эффективная температура - температура, которую ощущает одетый по сезону человек в тени. Характеристика душности погоды. При расчете учитывается влияние влажности воздуха и скорости ветра на теплоощущения человека.
Tes - Эффективная температура на солнце - температура, которую ощущает человек, с поправкой на солнечный нагрев. Характеристика знойности погоды. Зависит от высоты солнца над горизонтом, облачности и скорости ветра. Ночью, в пасмурную погоду, а также при ветре 12 м/с и более поправка равна нулю.
P - Атмосферное давление - приведенное к уровню моря атмосферное давление.
Po - Атмосферное давление - измеренное на уровне метеостанции атмосферное давление.
Tmin - Минимальная температура - минимум температуры воздуха на высоте 2 м над землей.
Tmax - Максимальная температура - максимум температуры воздуха на высоте 2 м над землей.
R - Количество осадков - Количество выпавших осадков за период времени, мм. При наведении курсора мыши на число - период времени, за который выпало указанное количество осадков.
R24 - Количество осадков - Количество выпавших осадков за 24 часа, мм.
S - Снежный покров - Высота снежного покрова, см. При наведении курсора мыши на число - состояние снежного покрова и степень покрытия местности в баллах.